Location: Bucksport
(44.6167°N, 68.8000°W)
Time: 07:27:32
(UTC-05:00)

N. Korean satellite - Visible Passes

Search period start: 20 February 2019 00:00
Search period end: 02 March 2019 00:00
Orbit: 456 x 510 km, 97.2° (Epoch: 20 February)

Date Brightness Start Highest point End Pass type
(mag) Time Alt. Az. Time Alt. Az. Time Alt. Az.
20 Feb 6.5 05:53:19 10° NNE 05:56:48 89° E 06:00:14 10° SSW visible
20 Feb 10.2 18:05:36 10° WSW 18:07:33 14° W 18:09:29 10° WNW visible
21 Feb 8.0 05:28:44 10° NNE 05:32:01 40° E 05:35:16 10° S visible
21 Feb 9.3 17:39:31 10° SSW 17:42:38 26° W 17:45:44 10° NW visible
22 Feb 9.5 05:04:32 10° NE 05:07:09 20° E 05:09:45 10° SE visible
23 Feb 10.4 04:41:50 10° E 04:42:12 10° E 04:42:33 10° E visible
24 Feb 6.7 05:47:46 10° NNE 05:51:13 76° E 05:54:38 10° S visible
24 Feb 10.1 17:59:42 10° SW 18:01:57 16° W 18:04:12 10° NW visible
25 Feb 8.4 05:23:14 10° NNE 05:26:25 34° E 05:29:34 10° SSE visible
26 Feb 9.8 04:59:09 10° NE 05:01:31 17° E 05:03:52 10° SE visible
28 Feb 7.0 05:42:11 10° NNE 05:45:35 63° E 05:48:59 10° S visible
28 Feb 10.0 17:53:50 10° SW 17:56:19 18° W 17:58:47 10° NW visible
01 Mar 8.8 05:17:42 10° NNE 05:20:46 29° E 05:23:48 10° SSE visible
